Weather in Sidon

Lebanon     33°33′07″N   35°23′21″E
temp.,
°C
wind,
m/s
gust,
m/s
humid.,
%
clouds,
%
prec.,
mm/h
press.,
hPa
HPBL,
m
17 june, thu
thu1700:00+17nnw129132 0.2 101644
03:00+16nnw229237 0.3 101536
06:00+17nw228164 0.1 1016426
09:00+20wnw32650 0.1 1016778
12:00+23wnw54530 0.0 1016934
15:00+23wnw54500 0.0 1016828
18:00+21nw44570 0.0 1016565
21:00+17nnw22820 0.0 101645
18 june, fri
fri1800:00+16nne22860 0.0 101630
03:00+15ne11820 0.0 101514
06:00+15nne11761 0.0 101514
09:00+20wnw32600 0.0 1014590
12:00+24wnw54530 0.0 1013834
15:00+24wnw54530 0.0 1013766
18:00+22nw44610 0.0 1012528
21:00+18nw11860 0.0 101323
19 june, sat
sat1900:00+16ne11947 0.0 101318
03:00+16s11890 0.0 101220
06:00+16se11840 0.0 101219
09:00+21wsw32640 0.0 1012582
12:00+25w54510 0.0 10121006
15:00+24wnw54570 0.0 1011928
18:00+22nw33620 0.0 1011637
21:00+18nnw11850 0.0 101223
20 june, sun
sun2000:00+17ne11880 0.0 101218
03:00+16ne11800 0.0 101213
06:00+16e11600 0.0 101214
09:00+23w31390 0.0 1012596
12:00+25wnw53470 0.0 1012918
15:00+26wnw43400 0.0 1011835
18:00+22wnw32570 0.0 1011506
21:00+18nnw11790 0.0 101218
21 june, mon
mon2100:00+17nne01830 0.0 101216
03:00+16ne11670 0.0 101113
06:00+17nne11570 0.0 101213
09:00+23w22450 0.0 1012594
12:00+25wnw53480 0.0 1012942
15:00+25wnw43490 0.0 1011788
18:00+23nw33560 0.0 1011495
21:00+19n11800 0.0 101218